[[{"header":{"parameterUnit":"m.s-1","parameterCategory":1,"la1":30.2991,"la2":30.254,"lo1":-89.0895,"lo2":-89.0444,"dy":0.0017,"dx":0.0017,"nx":28,"ny":28,"refTime":"2024-06-08T09:00:00:Z","depth":0,"parameterNumber":2,"parameterNumberName":"U-component_of_WINDS"},"data":[0,0,0,0,0,0,0,0,0,0,0,0,0,0,0,0,0,0,0,0,0,0,0,0,0,0,0,0,0,0,0,0,0,0,0,0,0,0,0,0,0,0,0,0,0,0,0,0,0,0,0,0,0,0,0,0,0,0,4.4604,4.4606,0,4.4792,4.4794,4.4796,4.477,4.4767,4.4763,4.476,4.4956,4.4963,4.4971,0,0,0,0,0,0,0,0,0,0,0,0,0,4.4222,4.4229,4.4603,4.4606,4.4608,4.4791,4.4794,4.4796,4.477,4.4766,4.4763,4.4759,4.4953,4.4962,4.4972,0,0,0,0,0,0,0,0,0,0,0,0,0,4.4397,4.4232,4.4603,4.4617,4.462,4.4791,4.4794,4.4797,4.4771,4.4766,4.4762,4.4757,4.495,4.4962,4.4974,4.5143,0,0,4.5011,4.5016,0,0,0,0,0,0,0,0,4.4387,4.4411,4.4613,4.4616,4.462,4.4752,4.4731,4.4913,4.4772,4.4714,4.476,4.4755,4.4892,4.4909,4.4954,4.5152,4.516,4.5012,4.5019,4.5024,4.5028,0,0,0,0,0,0,0,4.4375,4.4403,4.4678,4.4616,4.462,4.4614,4.4634,4.4765,4.4827,4.4719,4.4717,4.474,4.4893,4.4943,4.4959,4.5163,4.5011,4.5022,4.503,4.5035,4.5505,4.551,0,0,0,0,0,0,4.4359,4.4393,4.4672,4.4683,4.4489,4.4625,4.4647,4.4715,4.4825,4.4838,4.4743,4.4738,4.4924,4.4944,4.4965,4.5167,4.5024,4.5036,4.5043,4.55,4.5506,4.5512,0,0,0,0,0,0,4.4351,4.4384,4.4664,4.4538,4.4573,4.4636,4.4713,4.4721,4.477,4.4844,4.4855,4.4782,4.4921,4.4948,4.5098,4.5174,4.5041,4.5052,4.5494,4.5502,4.5509,4.5575,0,0,0,0,0,0,4.434,4.4381,4.4446,4.4539,4.458,4.4794,4.4718,4.4728,4.4791,4.4785,4.4884,4.4896,4.492,4.508,4.511,4.5188,4.5062,4.5487,4.5498,4.5507,4.5566,4.5584,4.5599,0,0,0,0,0,4.4326,4.4459,4.4449,4.4483,4.4662,4.4798,4.4821,4.4845,4.4797,4.4863,4.491,4.4893,4.5161,4.5095,4.5129,4.5212,4.5483,4.5495,4.5506,4.5559,4.5581,4.5599,0,0,0,0,0,0,4.4374,4.4471,4.4462,4.4628,4.4705,4.4793,4.4877,4.4868,4.4961,4.4951,4.4978,4.5001,4.5151,4.5197,4.5122,4.538,4.5315,4.5334,4.5344,4.5365,4.5381,4.5366,4.5072,0,0,0,0,0,4.4404,4.4505,4.4585,4.4724,4.4763,4.4813,4.4873,4.4885,4.4966,4.4998,4.5057,4.5136,4.5238,4.5305,4.5403,4.5574,4.5593,4.5647,4.5664,4.5677,4.5692,4.5783,4.5807,4.555,4.555,4.555,0,0,4.4466,4.4532,4.4595,4.4735,4.4796,4.49,4.4841,4.4954,4.5031,4.5016,4.5159,4.5205,4.5295,4.5455,4.5528,4.5498,4.5768,4.5692,4.5702,4.571,4.5797,4.5821,4.5843,4.5558,4.5557,4.5556,0,0,4.4633,4.4694,4.4814,4.4876,4.4968,4.5,4.5029,4.5119,4.5148,4.5292,4.5281,4.5374,4.555,4.5614,4.5669,4.5858,4.5844,4.589,4.5975,4.6063,4.6083,4.6101,4.6164,4.6187,4.5905,4.5905,4.5905,0,4.4699,4.4855,4.4878,4.4992,4.5052,4.5042,4.5163,4.5222,4.5342,4.5385,4.5349,4.5567,4.5628,4.58,4.5846,4.5893,4.5925,4.5877,4.6078,4.6096,4.6113,4.6174,4.6199,4.591,4.5909,4.5909,4.5908,0,4.493,4.5038,4.5125,4.5238,4.531,4.5427,4.5467,4.5537,4.5542,4.5578,4.5724,4.5796,4.5907,4.5949,4.5957,4.6123,4.61,4.6072,4.6006,4.6142,4.6199,4.6223,4.5916,4.5915,4.5913,4.5912,0,0,4.5131,4.5254,4.5285,4.5335,4.5435,4.5519,4.5636,4.5743,4.58,4.5884,4.598,4.6129,4.6101,4.6164,4.6179,4.6257,4.6397,4.6218,4.622,4.6245,4.658,4.6598,4.6625,4.6389,4.6394,4.6398,4.6571,0,4.5304,4.5508,4.5531,4.5713,4.5812,4.5803,4.5904,4.5976,4.6012,4.6102,4.6143,4.6245,4.6204,4.6241,4.6317,4.6363,4.6464,4.6352,4.6478,4.6482,4.6452,4.6656,4.6677,4.6837,4.6594,4.6598,4.6601,0,4.5534,4.562,4.5811,4.5894,4.5937,4.6027,4.6125,4.6212,4.6293,4.6314,4.6383,4.6387,4.6506,4.6438,4.6601,4.6525,4.6578,4.6608,4.6615,4.6625,4.6547,4.6669,4.6889,4.6912,4.6638,4.6635,4.6632,0,4.5656,4.5822,4.5956,4.6,4.6102,4.6165,4.621,4.6286,4.6348,4.6435,4.6475,4.6575,4.663,4.6707,4.6737,4.6686,4.6898,4.6834,4.6917,4.6916,4.696,4.6956,4.7189,4.7,4.7,4.6999,4.6999,0,4.5846,4.5962,4.6012,4.6095,4.6224,4.625,4.6377,4.642,4.6488,4.6578,4.6578,4.6662,4.6699,4.679,4.6815,4.6944,4.697,4.6989,4.6994,4.6987,4.6984,4.702,4.7008,4.7006,4.7004,4.7003,4.7002,0,4.6004,4.6043,4.6188,4.6271,4.6295,4.6386,4.6458,4.6537,4.6572,4.6686,4.6714,4.677,4.6876,4.6915,4.7045,4.7061,4.721,4.7208,4.7182,4.7182,4.7262,4.7253,4.7523,4.7559,4.735,4.7352,4.7354,0,4.612,4.6209,4.6301,4.636,4.6407,4.6504,4.6566,4.6595,4.666,4.6758,4.6825,4.693,4.7015,4.7185,4.7237,4.7336,4.7333,4.7422,4.7348,4.7338,4.733,4.7323,4.733,4.7434,4.7436,4.7438,4.7439,0,4.6322,4.6336,4.6425,4.6521,4.6595,4.6672,4.6747,4.6796,4.6836,4.6909,4.7016,4.7082,4.7213,4.7317,4.7418,4.7464,4.7458,4.7462,4.7486,4.7479,4.7458,4.7466,4.7215,4.7455,4.7454,4.7453,4.7452,4.7451,4.646,4.6537,4.6613,4.6712,4.677,4.684,4.6917,4.6961,4.7051,4.7158,4.7171,4.7285,4.7362,4.7496,4.7548,4.7638,4.7614,4.7649,4.7658,4.7665,4.7669,4.7447,4.7657,4.7656,4.7656,4.7656,4.7655,0,4.6658,4.6706,4.6796,4.69,4.6977,4.6964,4.7046,4.7111,4.7212,4.7284,4.7367,4.7489,4.7589,4.7648,4.7748,4.7808,4.7808,4.7833,4.7827,4.7837,4.7687,4.7654,4.7832,4.7832,4.7832,4.7832,4.7832,4.7832,4.677,4.6898,4.6921,4.7077,4.7125,4.7236,4.7283,4.7346,4.7403,4.7539,4.7621,4.7659,4.7725,4.783,4.792,4.7935,4.797,4.7998,4.801,4.7867,4.7849,4.7831,4.78,4.8006,4.8006,4.8153,4.8154,4.8155]},{"header":{"parameterUnit":"m.s-1","parameterCategory":1,"la1":30.2991,"la2":30.254,"lo1":-89.0895,"lo2":-89.0444,"dy":0.0017,"dx":0.0017,"nx":28,"ny":28,"refTime":"2024-06-08T09:00:00:Z","depth":0,"parameterNumber":3,"parameterNumberName":"V-component_of_WINDS"},"data":[0,0,0,0,0,0,0,0,0,0,0,0,0,0,0,0,0,0,0,0,0,0,0,0,0,0,0,0,0,0,0,0,0,0,0,0,0,0,0,0,0,0,0,0,0,0,0,0,0,0,0,0,0,0,0,0,0,0,1.7447,1.7447,0,1.7512,1.7513,1.7514,1.7491,1.749,1.7488,1.7487,1.7553,1.7556,1.7559,0,0,0,0,0,0,0,0,0,0,0,0,0,1.7302,1.7305,1.7447,1.7447,1.7448,1.7512,1.7513,1.7514,1.7492,1.749,1.7488,1.7486,1.7552,1.7556,1.756,0,0,0,0,0,0,0,0,0,0,0,0,0,1.7366,1.7306,1.7447,1.7445,1.7445,1.7512,1.7513,1.7514,1.7492,1.749,1.7488,1.7486,1.7551,1.7556,1.756,1.7632,0,0,1.7574,1.7576,0,0,0,0,0,0,0,0,1.7362,1.7371,1.7444,1.7445,1.7446,1.7491,1.7486,1.7553,1.7492,1.7474,1.7487,1.7485,1.7534,1.754,1.7557,1.7635,1.7638,1.7575,1.7577,1.7579,1.7581,0,0,0,0,0,0,0,1.7358,1.7368,1.7472,1.7445,1.7446,1.7441,1.7447,1.7499,1.7515,1.7476,1.7474,1.7482,1.7534,1.7553,1.7559,1.7639,1.7575,1.7579,1.7582,1.7583,1.7778,1.778,0,0,0,0,0,0,1.7353,1.7365,1.747,1.7474,1.7398,1.7445,1.7453,1.7479,1.7515,1.7518,1.7484,1.7481,1.7546,1.7553,1.7561,1.7647,1.7579,1.7584,1.7586,1.7775,1.7778,1.7781,0,0,0,0,0,0,1.735,1.7363,1.7468,1.7419,1.7432,1.745,1.748,1.7481,1.75,1.7521,1.7524,1.75,1.7544,1.7554,1.7614,1.7649,1.7586,1.759,1.7773,1.7776,1.778,1.782,0,0,0,0,0,0,1.7346,1.7362,1.7389,1.742,1.7435,1.7521,1.7482,1.7484,1.7508,1.7505,1.7537,1.754,1.7544,1.7607,1.7619,1.7654,1.7594,1.777,1.7774,1.7779,1.7815,1.7824,1.7832,0,0,0,0,0,1.7341,1.7398,1.7391,1.7404,1.747,1.7523,1.7531,1.7534,1.7511,1.7539,1.7552,1.7539,1.7643,1.7614,1.7626,1.7664,1.7767,1.7773,1.7778,1.7812,1.7823,1.7832,0,0,0,0,0,0,1.7371,1.7402,1.7394,1.7463,1.749,1.7519,1.7554,1.7545,1.758,1.7575,1.7577,1.7585,1.7646,1.7661,1.7627,1.7735,1.7702,1.771,1.7723,1.7733,1.7741,1.7737,1.7598,0,0,0,0,0,1.7385,1.7426,1.7451,1.7509,1.7523,1.7536,1.7559,1.7559,1.7588,1.7599,1.7617,1.7645,1.7684,1.7709,1.7746,1.7817,1.7824,1.7849,1.7857,1.7864,1.7871,1.791,1.7921,1.7799,1.7799,1.7798,0,0,1.7416,1.7438,1.7463,1.7515,1.7537,1.7578,1.7546,1.7592,1.7622,1.7606,1.7664,1.7678,1.7709,1.7775,1.7805,1.7789,1.7906,1.7871,1.7876,1.7879,1.7916,1.7928,1.7938,1.7802,1.7802,1.7801,0,0,1.7493,1.7513,1.7564,1.7586,1.7619,1.7627,1.7639,1.7669,1.7678,1.7736,1.7724,1.7761,1.7828,1.785,1.7871,1.7956,1.7945,1.7968,1.8011,1.8049,1.8058,1.8067,1.8097,1.8108,1.7975,1.7975,1.7975,0,1.7526,1.7589,1.7591,1.7638,1.7661,1.7648,1.7699,1.772,1.7763,1.778,1.7761,1.7845,1.7865,1.7936,1.7957,1.7974,1.7987,1.7965,1.8057,1.8065,1.8073,1.8103,1.8114,1.7978,1.7977,1.7977,1.7977,0,1.7629,1.7672,1.7709,1.7752,1.7779,1.7828,1.7837,1.7864,1.7862,1.7872,1.7932,1.7955,1.7997,1.8013,1.8011,1.8084,1.8073,1.8056,1.8023,1.8088,1.8115,1.8126,1.7981,1.798,1.798,1.7979,0,0,1.7726,1.7769,1.7783,1.7802,1.7836,1.787,1.7918,1.7959,1.7983,1.8012,1.8053,1.811,1.8094,1.8117,1.8117,1.815,1.8217,1.8129,1.813,1.8144,1.8298,1.8311,1.8324,1.8209,1.8211,1.8213,1.8296,0,1.7806,1.7891,1.7894,1.7971,1.8012,1.8,1.8042,1.8067,1.8078,1.8114,1.8125,1.8166,1.8142,1.8156,1.8188,1.8202,1.8247,1.8196,1.8247,1.8249,1.824,1.8338,1.8352,1.8429,1.8306,1.8308,1.8309,0,1.791,1.7944,1.8025,1.8055,1.8072,1.8109,1.8147,1.8181,1.821,1.8216,1.8241,1.8237,1.8286,1.8251,1.8318,1.8283,1.8304,1.8314,1.8317,1.8322,1.8283,1.8346,1.8453,1.8465,1.8326,1.8325,1.8324,0,1.7973,1.8039,1.8096,1.8113,1.8148,1.8175,1.8191,1.8218,1.8242,1.8275,1.8291,1.8329,1.835,1.8379,1.8385,1.8359,1.8452,1.8418,1.8458,1.8458,1.8478,1.8477,1.8591,1.8492,1.8492,1.8491,1.8491,0,1.8062,1.8112,1.8125,1.816,1.8216,1.8219,1.8274,1.8288,1.8312,1.835,1.8342,1.8377,1.8382,1.8419,1.8424,1.8479,1.8488,1.8494,1.8495,1.8495,1.8494,1.8509,1.8504,1.8494,1.8494,1.8493,1.8493,0,1.8142,1.8152,1.8214,1.8243,1.8251,1.8291,1.8315,1.8349,1.8359,1.8406,1.8418,1.8433,1.8476,1.8484,1.8535,1.8538,1.8603,1.8599,1.8594,1.8593,1.8633,1.8629,1.876,1.8777,1.8667,1.8668,1.8669,0,1.8198,1.8236,1.8269,1.8294,1.8311,1.8351,1.8376,1.8381,1.8407,1.8443,1.8472,1.8514,1.8548,1.8616,1.8632,1.867,1.8666,1.871,1.8672,1.8671,1.8667,1.8665,1.8669,1.8717,1.8718,1.8719,1.872,0,1.8296,1.83,1.8336,1.8375,1.8405,1.8435,1.8464,1.8485,1.8493,1.8523,1.8567,1.8593,1.8644,1.8686,1.8724,1.874,1.8732,1.8732,1.8743,1.8744,1.8739,1.8742,1.8614,1.8729,1.8728,1.8727,1.8727,1.8726,1.8366,1.84,1.8428,1.8469,1.8491,1.8519,1.8552,1.8566,1.8602,1.8645,1.8645,1.8693,1.8721,1.8772,1.879,1.8827,1.8814,1.883,1.8834,1.8838,1.8842,1.8733,1.8834,1.8834,1.8834,1.8834,1.8834,0,1.8464,1.8481,1.8519,1.856,1.8592,1.8582,1.8613,1.8641,1.8683,1.871,1.8743,1.8793,1.8834,1.8853,1.8892,1.8918,1.8915,1.8929,1.8927,1.8931,1.8852,1.8838,1.893,1.893,1.893,1.893,1.893,1.893,1.8518,1.8575,1.8582,1.8649,1.8666,1.8713,1.8732,1.8757,1.8779,1.8835,1.8869,1.8881,1.8905,1.8946,1.8983,1.8987,1.9002,1.9017,1.902,1.8946,1.8936,1.8927,1.8914,1.902,1.9021,1.9095,1.9096,1.9097]}]]